Regional Weather Roundup
Issued by NWS

Home | Current Version | Previous Version | Graphics & Text | Print | Product List | Glossary On
Versions: 1 2 3 4 5 6 7 8 9 10 11 12 13 14 15 16 17 18 19 20 21 22 23 24 25 26 27 28 29 30 31 32 33 34 35 36 37 38 39 40 41 42 43 44 45 46 47 48 49 50
000
ASUS45 KBOI 031510
RWRID

IDAHO REGIONAL WEATHER ROUNDUP
NATIONAL WEATHER SERVICE BOISE ID
900 AM MDT TUE MAY 03 2016

NOTE: "FAIR" INDICATES FEW OR NO CLOUDS BELOW 12000 FEET
WITH NO SIGNIFICANT WEATHER AND/OR OBSTRUCTIONS TO VISIBILITY

IDZ012-014-031600-
SOUTHWEST IDAHO


CITY           SKY/WX    TMP DP  RH WIND       PRES   REMARKS
BOISE          SUNNY     59  34  39 N3        30.15R
CALDWELL       SUNNY     57  40  52 VRB6      30.16R
MOUNTAIN HOME  SUNNY     56  38  51 SE18      30.16R
$$

IDZ016-017-031600-
SOUTHCENTRAL IDAHO


CITY           SKY/WX    TMP DP  RH WIND       PRES   REMARKS
BURLEY         SUNNY     49  40  71 CALM      30.22R
JEROME         SUNNY     52  40  63 NE12      30.21S
TWIN FALLS     SUNNY     58  34  40 E3        30.21S
$$

IDZ019>023-031600-
SOUTHEAST IDAHO


CITY           SKY/WX    TMP DP  RH WIND       PRES   REMARKS
IDAHO FALLS    SUNNY     50  30  46 N5        30.27R
POCATELLO      SUNNY     51  36  56 NE5       30.26R
REXBURG        SUNNY     45  30  55 NE5       30.27S
$$

IDZ006-010-011-018-031-032-031600-
CENTRAL IDAHO MOUNTAINS


CITY           SKY/WX    TMP DP  RH WIND       PRES   REMARKS
MCCALL         SUNNY     46  39  76 CALM      30.21S
HAILEY         SUNNY     46  30  53 NW12      30.28S
STANLEY          N/A     38  28  67 N3        30.31S
SALMON         SUNNY     45  32  61 CALM      30.24F
CHALLIS        SUNNY     48  27  44 CALM      30.26S
$$

IDZ002-004-006-007-026-031600-
NORTHERN IDAHO


CITY           SKY/WX    TMP DP  RH WIND       PRES   REMARKS
LEWISTON       SUNNY     61  44  53 E8        30.09S
LOWELL           N/A     49  44  83 CALM      30.19F
COEUR D`ALENE  SUNNY     55  45  67 NE10      30.09S
MULLAN PASS    SUNNY     58  30  34 CALM      30.23R
$$



USA.gov is the U.S. government's official web portal to all federal, state and local government web resources and services.